Location: Frizzleburg
(41.0764°N, 80.4548°W)
Time: 00:39:53
(UTC+00:00)

Cosmos 2360 Rocket - Pass Details

Date: 17 November 2019
Orbit: 832 x 847 km, 71.0° (Epoch: 06 December)

Event Time Altitude Azimuth Distance (km) Brightness Sun altitude
Rises 11:37:33 0° 333° (NNW) 3,416 4.9 -6.8°
Reaches altitude 10° 11:40:01 10° 331° (NNW) 2,477 4.2 -6.3°
Maximum altitude 11:45:39 65° 251° (WSW) 925 2.3 -5.3°
Drops below altitude 10° 11:51:14 10° 170° (S) 2,458 5.1 -4.4°
Sets 11:53:41 0° 167° (SSE) 3,387 5.9 -3.9°
